Preview of NWS' New Version of Forecast
This preview is not operational and should not be used for support decisions.

Regional Weather Roundup (RWR)

Issued by National Weather Service (NWS)

                            
000
ASUS43 KDMX 211906
RWRIA 

WEATHER ROUNDUP FOR IOWA
NATIONAL WEATHER SERVICE DES MOINES IA
100 PM CST THU FEB 21 2019

NOTE: "FAIR" INDICATES FEW OR NO CLOUDS BELOW 12,000 FEET WITH NO
SIGNIFICANT WEATHER AND/OR OBSTRUCTIONS TO VISIBILITY.

* - THESE STATIONS ARE NOT NWS STATIONS...THUS NOT UNDER NWS
QUALITY CONTROL.  THEY ALSO DO NOT REPORT WEATHER SUCH 
AS PRECIPITATION OR FOG.  

IAZ001>003-012>014-020>022-031>034-043>046-212000-
   NORTHWEST IOWA
  
CITY           SKY/WX    TMP DP  RH WIND       PRES   REMARKS
CARROLL *      SUNNY     25  16  68 NW6       30.19F WCI  18          
CHEROKEE *     CLOUDY    19  12  75 W3        30.20F                  
DENISON *      SUNNY     25  14  63 CALM      30.21F                  
LE MARS *      SUNNY     16  10  79 NW5       30.21F WCI   9          
ORANGE CITY *  SUNNY     16  12  86 NW8       30.19F WCI   5          
SHELDON *      MOSUNNY   12  10  92 W6        30.19R WCI   3          
SIOUX CITY     SUNNY     20  13  74 SW3       30.21F                  
SPENCER        CLOUDY    15   8  73 W8        30.20S WCI   4          
STORM LAKE *   SUNNY     16  12  86 W10       30.17F WCI   3          
$$
 
IAZ055>058-069>071-079>083-090>094-212000-
   SOUTHWEST IOWA
  
CITY           SKY/WX    TMP DP  RH WIND       PRES   REMARKS
ATLANTIC *     SUNNY     23  18  80 NE5       30.20F WCI  17          
AUDUBON *      SUNNY     27  18  69 CALM      30.20F                  
CLARINDA *     SUNNY     28  18  64 NE6       30.23F WCI  22          
COUNCIL BLFS * SUNNY     27  18  69 NE7       30.18F WCI  19          
CRESTON *      SUNNY     30  19  64 CALM      30.20F                  
HARLAN  *      SUNNY     23  14  68 N5        30.21F WCI  17          
LAMONI         CLOUDY    31  17  56 SE3       30.20F                  
RED OAK *      SUNNY     27  16  63 N5        30.21F WCI  21          
SHENANDOAH *   SUNNY     27  18  69 NE12      30.19F WCI  16          
$$
 
IAZ047>049-059>061-072>074-084-212000-
   CENTRAL IOWA
  
CITY           SKY/WX    TMP DP  RH WIND       PRES   REMARKS
AMES           SUNNY     25  14  63 N6        30.22F WCI  18          
ANKENY *       SUNNY     25  16  68 NE9       30.23F WCI  15          
BOONE *        SUNNY     23  16  74 N7        30.20F WCI  15          
DES MOINES     MOSUNNY   29  16  58 NW7       30.22F WCI  22          
GRINNELL*      SUNNY     24  16  71 NW6       30.23S WCI  17          
KNOXVILLE *    SUNNY     28  18  64 CALM      30.23S                  
MARSHALLTOWN   SUNNY     21  15  78 NW7       30.21F WCI  12          
NEWTON *       SUNNY     25  16  68 N5        30.22F WCI  19          
PELLA *        SUNNY     29  15  55 CALM      30.26S                  
PERRY *        FAIR      26  17  67 N6        30.21F WCI  19          
$$
 
IAZ004>006-015-016-023>025-035-036-212000-
   NORTH CENTRAL IOWA
  
CITY           SKY/WX    TMP DP  RH WIND       PRES   REMARKS
ALGONA *       SUNNY     16  12  86 W10       30.18F WCI   3          
CLARION *      SUNNY     18  12  79 W8        30.21F WCI   7          
ESTHERVILLE    SUNNY     17  11  77 W10       30.18F WCI   5          
FORT DODGE *   SUNNY     26  13  57 W6        30.21F WCI  19          
MASON CITY     SUNNY     15  10  80 W7        30.22R WCI   5          
FOREST CITY *  FAIR      18  12  79 W9        30.21R WCI   6          
IOWA FALLS *   FAIR      22  15  74 W9        30.22F WCI  12          
$$

IAZ007>011-017>019-026>030-037>042-050>054-066-212000-
   NORTHEAST IOWA
  
CITY           SKY/WX    TMP DP  RH WIND       PRES   REMARKS
CEDAR RAPIDS   FAIR      22  14  71 NW10      30.22F WCI  11          
CHARLES CITY * FAIR      16   9  73 NW7       30.22S WCI   6          
CLINTON *      FAIR      28  19  69 W13       30.25R WCI  17          
DECORAH *      FAIR      18  12  79 W9        30.18S WCI   6          
DUBUQUE        FAIR      21  12  68 W12       30.19S WCI   9          
OELWEIN *      FAIR      18  14  86 W12       30.20F WCI   5          
WATERLOO       FAIR      22  11  62 NW10      30.21F WCI  11          
$$
 
IAZ064-065-067-068-078-212000-
   EAST CENTRAL IOWA
  
CITY           SKY/WX    TMP DP  RH WIND       PRES   REMARKS
DAVENPORT      FAIR      27  17  66 W8        30.26S WCI  19          
IOWA CITY      FAIR      25  15  66 S7        30.27S WCI  17          
MT. PLEASANT * MOSUNNY   34  21  60 CALM      30.26F                  
MUSCATINE *    FAIR      30  16  55 NW9       30.27F WCI  22          
QUAD CITIES    FAIR      34  18  52 NW8       30.24S WCI  27          
$$
 
IAZ062-063-075>077-085>089-095>099-212000-
   SOUTHEAST IOWA
  
CITY           SKY/WX    TMP DP  RH WIND       PRES   REMARKS
BURLINGTON     PTSUNNY   33  18  53 NW9       30.25F WCI  25          
FAIRFIELD *    MOSUNNY   27  14  59 N3        30.25S                  
FORT MADISON * MOSUNNY   34  25  69 NW6       30.27R WCI  29          
KEOKUK *       MOSUNNY   36  23  60 N7        30.25S WCI  30          
OSKALOOSA *    FAIR      29  17  61 CALM      30.26S                  
OTTUMWA        CLOUDY    30  16  56 N3        30.25S                  
WASHINGTON *   MOSUNNY   27  18  69 W7        30.26F WCI  19          
$$

ABBREVIATIONS USED IN REMARKS
   TC - TEMPERATURES IN CELSIUS
  WCI - WIND CHILL INDEX
   HX - HEAT INDEX
  VSB - VISIBILITY  
$$